User: anonymous
Location: Unspecified
(0.0000°N, 0.0000°E)
Time: 07:29:20
(UTC+00:00)
Language:

Explorer 11/Cluster Stage 4 - Orbit

View from above orbital plane
View from above orbital plane
View from above satellite
View from above satellite

Ground track
Ground track

The orbit data is extracted from the following two-line orbital elements,

1 00107U 61013A   14234.41132308  .00000889  00000-0  10453-3 0  1156
2 00107 028.7879 290.7990 0562423 120.3611 315.6275 14.05073055665896
Epoch (UTC): 22 August 2014 09:52:18
Eccentricity: 0.0562423
inclination: 28.7879°
perigee height: 468 km
apogee height: 1284 km
right ascension of ascending node: 290.7990°
argument of perigee: 120.3611°
revolutions per day: 14.05073055
mean anomaly at epoch: 315.6275°
orbit number at epoch: 66589

The dashed part of the orbit path shows where the satellite is in the earth's shadow,  

DLR